1st Responders/1st Detectors/Storm Spotters Weather Summary for Powell County, KY

Forecast Maps


Reg. NEXRAD Animation


National Fire Danger: Day 1 & 2 Map

Current NWS Watch/Warnings

SPC Convective Day 1 Outlook


Day 2 Outlook

(Click images to enlarge|Page will refresh every 5 minutes)
UK Ag. Weather Center Desktop Severe Weather Service[HERE]
Powell County, KY Hazardous Weather Outlook Webcast
(9 AM to 9 PM Mon-Fri)
[Fast]
[Dial-up]


UKAWC 1st Detectors/1st Responders Precision Weather Forecast For POWELL County, Kentucky
(based on the NWS County Digital Forecast)

ISSUED AT 02:00 UTC ON SUNDAY MAR 07 2021
DAY SAT SUNDAY
EDT 3HR 11P MIDN 1A 2A 3A 4A 5A 6A 7A 8A 9A 10A 11A NOON 1P 2P 3P 4P 5P 6P 7P
MAX/MIN -- -- -- -- -- -- -- -- -- 22° -- -- -- -- -- -- -- -- -- -- 49°
TEMP 29° 29° 29° 27° 27° 27° 25° 22° 22° 22° 23° 29° 34° 38° 41° 43° 45° 49° 49° 49° 45°
SKY COVER 3% 3% 4% 7% 21% 35% 45% 46% 41% 32% 23% 11% 3% 1% 1% 1% 2% 2% 1% 2% 2%
Clouds
DEW PT 20° 20° 20° 20° 20° 20° 20° 20° 20° 22° 22° 22° 22° 20° 18° 16° 16° 16° 16° 16° 14°
RH 68% 68% 69% 71% 74% 77% 84% 91% 92% 100% 92% 72% 58% 48% 39% 33% 30% 26% 25% 26% 27%
POP 12HR -- -- -- -- -- -- -- -- -- 1% -- -- -- -- -- -- -- -- -- -- --
RAIN/SNOW (liq.equ) -- -- -- 0.00in -- -- -- -- -- 0.00in -- -- -- -- -- 0.00in -- -- -- -- --
SNOWFALL -- -- -- 0in -- -- -- -- -- 0in -- -- -- -- -- 0in -- -- -- -- --
WIND SPEED(MPH) 0 0 0 0 0 0 0 0 1 1 1 2 2 5 5 6 6 6 6 5 1
WIND Gust(MPH) 1 1 1 1 1 1 1 1 2 5 6 7 7 9 9 14 13 13 10 9 6
WIND DIR N W NW N N N N N NW NW NW NW NW NW NW NW NW NW NW NW N
DEW Frost Frost Frost Freeze Freeze Freeze Freeze Freeze Freeze Freeze Freeze Frost -- -- -- -- -- -- -- -- --
HeatIndex 29 29 29 27 27 27 25 22 22 22 23 26 32 35 39 40 45 49 49 49 45
Rain Showers -- -- -- -- -- -- -- -- -- -- -- -- -- -- -- -- -- -- -- -- --
WIND CHILL -- -- -- -- -- -- -- -- -- -- -- -- -- 35° 38° 39° 42° -- -- -- --
SPRAY COND
DRY COND
LIVESTOCK COLDSTRESS



DAY MONDAY TUESDAY WEDNESDAY THURSDAY FRIDAY SATURDAY
EDT 6HR 8P 9P 10P 11P MIDN 1A 2A 3A 4A 5A 6A 7A 8A 9A 10A 11A 2P 5P 8P 11P 2A 5A 8A 11A 2P 5P 8P 2A 8A 2P 8P 2A 8A 2P 8P 2A 8A 2P 8P 2A 8A 2P 8P
MAX/MIN -- -- -- -- -- -- -- -- -- -- -- -- 22° -- -- -- -- 61° -- -- -- -- 31° -- -- 65° -- -- 43° 67° -- -- 49° 68° -- -- 50° 63° -- -- 41° 59° --
TEMP 41° 38° 34° 32° 31° 31° 29° 27° 27° 25° 23° 23° 23° 29° 36° 43° 58° 61° 50° 43° 38° 34° 31° 49° 61° 65° 56° 47° 43° 65° 58° 52° 50° 67° 63° 56° 50° 61° 56° 45° 41° 56° 52°
SKY COVER 1% 1% 2% 2% 3% 4% 4% 4% 3% 2% 3% 4% 6% 6% 5% 5% 11% 7% 1% 3% 7% 21% 32% 39% 54% 45% 46% 37% 45% 44% 62% 65% 80% 76% 76% 73% 69% 67% 59% 63% 61% 63% 53%
Clouds
DEW PT 14° 16° 16° 18° 20° 20° 22° 22° 23° 23° 23° 22° 22° 22° 25° 27° 34° 36° 36° 36° 34° 32° 31° 36° 34° 36° 36° 38° 36° 41° 43° 43° 45° 52° 52° 49° 47° 45° 43° 40° 40° 41° 40°
RH 32% 40% 47% 55% 60% 65% 71% 80% 84% 91% 100% 95% 91% 77% 61% 50% 38% 41% 58% 78% 85% 91% 99% 62% 36% 34% 48% 70% 73% 42% 57% 74% 79% 58% 67% 80% 88% 53% 61% 82% 92% 57% 60%
POP 12HR 1% -- -- -- -- -- -- -- -- -- -- -- 0% -- -- -- -- -- 0% -- -- -- 0% -- -- -- 0% -- 0% -- 6% -- 28% -- 47% -- 55% -- 53% -- 38% -- 37%
RAIN/SNOW (liq.equ) 0.00in -- -- -- -- -- 0.00in -- -- -- -- -- 0.00in -- -- -- 0.00in -- 0.00in -- 0.00in -- 0.00in -- 0.00in -- 0.00in -- -- -- -- -- -- -- -- -- -- -- -- -- -- -- --
SNOWFALL 0in -- -- -- -- -- 0in -- -- -- -- -- 0in -- -- -- 0in -- 0in -- 0in -- 0in -- 0in -- 0in -- -- -- -- -- -- -- -- -- -- -- -- -- -- -- --
WIND SPEED(MPH) 0 0 0 0 0 0 0 0 0 0 0 0 0 0 0 1 5 5 0 0 0 0 0 5 7 7 1 2 5 13 7 8 8 13 6 6 6 8 2 1 1 7 2
WIND DIR N N N N N N N N N N S S S S S SW SW SW SW SW SW S S S SW SW S S S SW S S S SW SW SW SW W W NW N NW NE
HeatIndex 41 38 34 32 31 31 29 27 27 25 23 23 23 29 36 43 58 61 50 43 38 34 31 49 61 65 56 47 41 65 58 52 50 67 63 56 50 61 56 45 41 56 52
Rain Showers -- -- -- -- -- -- -- -- -- -- -- -- -- -- -- -- -- -- -- -- -- -- -- -- -- -- -- -- -- -- -- -- Chance Chance Chance Chance Chance Chance Chance Chance Chance Chance Chance
WIND CHILL -- -- -- -- -- -- -- -- -- -- -- -- -- -- -- -- -- -- -- -- -- -- -- -- -- -- -- -- 40° -- -- -- -- -- -- -- -- -- -- -- -- -- --
SPRAY COND
DRY COND
LIVESTOCK COLDSTRESS

Click on individual weather variable above in left-hand column (ie., TEMP, RH, QPF 12HR) to view state forecast maps






NWS 48 Hr. Forecast Maps,

Regional Hourly Observations For POWELL County, Kentucky
Issued at 900 PM EST SAT MAR 06 2021
NORTHEAST KENTUCKY
  
CITY           SKY/WX    TMP DP  RH WIND       PRES   REMARKS
LEXINGTON      CLEAR     38  15  39 N6        30.29R WCI  33          
COVINGTON      CLEAR     38  15  39 NW6       30.29R WCI  33          
FRANKFORT      CLEAR     33  19  56 NW3       30.29R                  


Current NOWCAST not available:
Nowcasts are not issued routinely during fair weather. Only when
precipitation or other significant weather is occuring in this county will these
forecasts be issued. Currently, there is no short term forecast in effect.


Fire Weather Forecast For POWELL County, KY
Provided by the National Weather Service:

Issued at: Sat Mar 6 21:05:01 EST 2021

437 PM EST Sat Mar 6 2021

                      Tonight      Sun          Sun Night    Mon          

Cloud Cover           Mclear       Mclear       Clear        Mclear       
Chance precip (%)     0            0            0            0            
Precip type           None         None         None         None         
Temp (24H TREND)      18-29 (+3)   45-48 (+1)   19-30        58-59        
Rh % (24H TREND)      66-100 (+18) 21-24 (+2)   63-100       32-39        
20ftwnd-AM(mph)                    NW 2-6                    Lgt/Var      
20ftwnd-PM(mph)       Lgt/Var      NW 3-7 G14   Lgt/Var      SW 2-6       
Precip duration                                                           
Precip begin                                                              
Precip end                                                                
Precip amount         0.00         0.00         0.00         0.00         
LAL                   1            1            1            1            
Haines Index (MID)                 3                         3            
Mixing hgt(ft-AGL)                 4100                      4300         
Transport wnd (mph)                NW 13                     SW  8        
Vent rate (kt-ft)                  46144                     28243        
ADI Early             2 Very Poor  39 Fair      2 Very Poor  21 Fair      
ADI Late              1 Very Poor  50 Gen Good  2 Very Poor  31 Fair      
Max LVORI Early       2            5            2            4            
Max LVORI Late        5            2            4            2            

REMARKS...RANGES OF MIN T EXCEEDING 8 DEGREES & RANGES OF MAX RH        
EXCEEDING 10% INDICATE THE LIKELIHOOD OF THERMAL BELTS. ADI IS        
ATMOSPHERIC DISPERSION INDEX BY LAVDAS. DISPERSION INDEX IS        
MAGNITUDE OF VENT RATE DIVIDED BY 1000.


SPC's Fire Weather Web Tool (Excellent!), SPC's Fire Weather Outlooks, NWS Fire Weather WEB, Fire Danger Class Map,
Keetch-Byram Drought Index, ROMAN Web, Haines Index ,
WFAS's 10-hr Dead Fuel Moist., WFAS's 100-hr Dead Fuel Moist., Probablity of Ignition, Visual blackness Map, Palmer Drought Index, HPC's Rainfall Forecast Maps


Hazardous Weather Outlook For POWELL County, Kentucky
342 PM EST Sat Mar 6 2021

 DAY ONE  Tonight.

No hazardous weather is expected at this time.

 DAYS TWO THROUGH SEVEN  Sunday through Friday.

No hazardous weather is expected at this time.

 SPOTTER INFORMATION STATEMENT  

Spotter activation is not anticipated.

Latest POWELL County, Kentucky Watches, Warnings and Advisories.
Additional Drought Info.: UKAWC Drought Page, Kentucky Drought Watch


7-Day Forecast For POWELL County, KY

TONIGHT
Clear in the evening then becoming partly cloudy. Lows in the mid 20s. Light winds.

SUNDAY
Sunny. Highs in the upper 40s. Light winds.

SUNDAY NIGHT
Clear. Lows in the mid 20s. Light winds.

MONDAY
Sunny. Highs in the lower 60s. Light winds.

MONDAY NIGHT
Mostly clear. Lows in the lower 30s in the valleys and in the upper 30s on the ridges. Light winds.

TUESDAY
Mostly sunny. Highs in the mid 60s.

TUESDAY NIGHT
Partly cloudy. Lows in the lower 40s.

WEDNESDAY
Mostly sunny. Highs in the upper 60s.

WEDNESDAY NIGHT
Mostly cloudy with a 30 percent chance of showers. Lows in the lower 50s.

THURSDAY
Mostly cloudy with a 50 percent chance of showers. Highs in the upper 60s.

THURSDAY NIGHT
Mostly cloudy with a 50 percent chance of showers. Lows in the lower 50s.

FRIDAY
Partly sunny with a 50 percent chance of showers. Highs in the mid 60s.

FRIDAY NIGHT
Mostly cloudy with a 40 percent chance of showers. Lows in the lower 40s.

SATURDAY
Partly sunny with a 40 percent chance of showers. Highs in the upper 50s.

Ag Weather Center, Department of Biosystems & Agricultural Engineering, University of Kentucky